Content
SEND FEEDBACK

Daily
Averages
Monthly
Summary
United States of America

BLYTHEWOOD, SOUTH CAROLINA


Home > North America > United States > South Carolina
Elevation: 383 feet     Latitude: 34 08N     Longitude: 080 52W

WEATHER
 
SELECT A DAY
Number of Records: 157,254;   Date Range: 10/15/98 - 7/27/14
 
SHARE

PRINT THIS DATA

[ ← Previous Day ]
WEATHER ALMANAC - JANUARY 3, 2013
[ Next Day → ]
[ °C ]   °F
Weather ElementAverageHighLow
Temperature48.1 °F51.8 °F (1:27 pm)41 °F (11:53 pm)
Dewpoint45 °F48.2 °F (12:02 pm)39 °F (10:53 pm)
Humidity89.1 %100 % (8:24 am)76 % (10:53 pm)
Barometer30.19 in30.30 in (10:53 pm)30.13 in (1:53 am)
Wind Speed1.4 mph5.8 mph (2:53 pm)
Weather ElementAverage
Visibility6.5 mi
Wind DirectionNNE (27 °)

Weather ElementTotal
Precipitation0.06 in
Heating Degree Days18.6 (Base 65)
Averaged from 37 records on January 3, 2013
WEATHER CONDITIONS BREAKOUT
WIND DIRECTION BREAKOUT
WEATHER BY HOUR - JANUARY 3, 2013
[ °C ]   °F
Local TimeTemperatureDewpointHumidityBarometerVisibilityWind DirectionWind SpeedGust SpeedPrecipitationEventsConditions
1:53 AM48.9 °F44.1 °F83 %30.13 in10.0 miCalmOvercast
2:53 AM48.9 °F45.0 °F86 %30.14 in10.0 miCalmOvercast
3:53 AM48.9 °F46.0 °F90 %30.13 in9.0 miCalm0.00 inOvercast
4:51 AM48.2 °F46.4 °F93 %30.13 in7.0 miCalm0.01 inRainLight Rain
4:53 AM48.9 °F46.0 °F90 %30.13 in7.0 miCalm0.01 inRainLight Rain
5:53 AM48.0 °F46.0 °F93 %30.14 in7.0 miCalm0.01 inOvercast
6:53 AM48.0 °F46.9 °F96 %30.17 in5.0 miNNW (340°)3.5 mph0.01 inRainLight Rain
7:34 AM48.2 °F46.4 °F93 %30.17 in2.5 miCalm0.01 inRainLight Rain
7:53 AM48.0 °F46.0 °F93 %30.17 in1.8 miEast (80°)3.5 mph0.01 inRainLight Rain
8:16 AM48.2 °F46.4 °F93 %30.18 in2.5 miCalm0.00 inOvercast
8:24 AM46.4 °F46.4 °F100 %30.18 in4.0 miCalm0.00 inOvercast
8:37 AM46.4 °F46.4 °F100 %30.17 in4.0 miSSE (160°)4.6 mph0.00 inOvercast
8:53 AM48.0 °F46.0 °F93 %30.18 in4.0 miSE (130°)4.6 mph0.00 inOvercast
9:53 AM48.0 °F46.9 °F96 %30.18 in5.0 miSE (140°)3.5 mphOvercast
10:53 AM48.9 °F46.0 °F90 %30.20 in7.0 miCalmOvercast
11:53 AM48.9 °F46.9 °F93 %30.18 in7.0 miCalmOvercast
12:02 PM50.0 °F48.2 °F94 %30.18 in8.0 miCalmOvercast
12:32 PM50.0 °F46.4 °F87 %30.18 in10.0 miCalmOvercast
12:53 PM51.1 °F46.9 °F86 %30.18 in10.0 miCalmOvercast
1:27 PM51.8 °F46.4 °F82 %30.15 in10.0 miESE (120°)3.5 mphOvercast
1:44 PM51.8 °F46.4 °F82 %30.14 in9.0 miVariable3.5 mphOvercast
1:53 PM51.1 °F46.9 °F86 %30.15 in6.0 miVariable3.5 mphOvercast
2:15 PM50.0 °F46.4 °F87 %30.15 in6.0 miVariable4.6 mphOvercast
2:53 PM48.9 °F46.0 °F90 %30.16 in4.0 miNNE (30°)5.8 mphOvercast
3:53 PM48.0 °F45.0 °F89 %30.16 in4.0 miVariable4.6 mphOvercast
4:53 PM48.0 °F45.0 °F89 %30.20 in3.0 miCalmOvercast
5:18 PM48.2 °F44.6 °F87 %30.21 in4.0 miCalmOvercast
5:53 PM46.9 °F44.1 °F90 %30.22 in6.0 miCalmOvercast
6:32 PM46.4 °F44.6 °F93 %30.23 in6.0 miCalmMostly Cloudy
6:53 PM46.9 °F44.1 °F90 %30.24 in6.0 miCalmMostly Cloudy
7:53 PM46.9 °F43.0 °F86 %30.27 in7.0 miCalmOvercast
8:21 PM46.4 °F42.8 °F87 %30.27 in6.0 miCalmOvercast
8:53 PM46.9 °F42.1 °F83 %30.29 in7.0 miVariable3.5 mphOvercast
9:53 PM46.9 °F39.9 °F77 %30.29 in10.0 miVariable3.5 mphOvercast
10:53 PM46.0 °F39.0 °F76 %30.30 in10.0 miCalmMostly Cloudy
11:18 PM44.6 °F39.2 °F81 %30.29 in9.0 miCalmScattered Clouds
11:53 PM41.0 °F39.0 °F93 %30.29 in5.0 miCalmClear
Hourly data recorded from KCUB, located miles away from Blythewood, South Carolina







STORIES FROM OUR PARTNERS